Location: Altleiningen
(49.5078°N, 8.0741°E)
Time: 11:25:46
(UTC+00:00)

Cosmos 1486 Rocket - Pass Details

Date: 03 March 2021
Orbit: 758 x 784 km, 74.1° (Epoch: 12 April)

Event Time Altitude Azimuth Distance (km) Brightness Sun altitude
Rises 17:51:20 0° 336° (NNW) 3,255 7.6 -6.9°
Reaches altitude 10° 17:53:42 10° 337° (NNW) 2,328 6.8 -7.3°
Maximum altitude 17:59:01 87° 65° (ENE) 785 4.0 -8.1°
Drops below altitude 10° 18:04:19 10° 157° (SSE) 2,328 6.3 -9.0°
Sets 18:06:42 0° 158° (SSE) 3,255 7.0 -9.4°
